Zurück zum Katalog

STARLINK-11604

AktivKommunikationVLEO
NORAD 63133·PAYLOAD·🇺🇸 United States

Gestartet Mar 3, 2025 von Cape Canaveral Space Force Station

Loading…

Nächste Überflüge (nächste 24 Stunden)

TLE

AktuellSource: CelesTrak SupGP

Epoche: Sep 15, 2026, 02:16 UTC

1 63133C 25043B   26258.09493056 -.00038396  00000+0 -29832-3 0  2584
2 63133  43.0005 189.4512 0001619 272.4347 177.9803 15.70849822    18

Verfolge STARLINK-11604 in Echtzeit mit AllMySat

Download on the App Store